Weather reports worldwide

Advertisment
Culdrose, United Kingdom (3809): temperature & dewpoint: 18.06.2018 15:00:00 - 24.06.2018 15:00:00 (BST)Culdrose, United Kingdom (3809): wind speed & gusts: 18.06.2018 15:00:00 - 24.06.2018 15:00:00 (BST)Culdrose, United Kingdom (3809): wind direction: 18.06.2018 15:00:00 - 24.06.2018 15:00:00 (BST)Culdrose, United Kingdom (3809): reduced air pressure: 18.06.2018 15:00:00 - 24.06.2018 15:00:00 (BST)Culdrose, United Kingdom (3809): visibility: 18.06.2018 15:00:00 - 24.06.2018 15:00:00 (BST)Culdrose, United Kingdom (3809): precipitation: 18.06.2018 15:00:00 - 24.06.2018 15:00:00 (BST)
Date & Time tt [°C] td [°C] ff [km/h] ff [kn] fx [km/h] fx [kn] dd ppp [hPa] vv [km] rr [mm]
24.06.2018 15:00:00 20,0 9,3 15 8 - - SW 1025,0 10 0,0
24.06.2018 14:00:00 21,0 9,6 15 8 - - WSW 1025,0 26 0,0
24.06.2018 13:00:00 21,5 7,6 11 6 - - SSE 1025,2 26 0,0
24.06.2018 12:00:00 20,7 8,0 9 5 - - SSW 1025,7 10 0,0
24.06.2018 11:00:00 20,9 5,8 8 4 - - E 1025,4 29 0,0
24.06.2018 10:00:00 20,2 6,1 15 8 - - E 1025,2 30 0,0
24.06.2018 09:00:00 18,8 6,5 11 6 - - NE 1025,3 30 0,0
24.06.2018 08:00:00 16,7 6,2 16 9 - - NE 1025,4 30 0,0
24.06.2018 07:00:00 14,5 4,4 15 8 - - NE 1025,4 10 0,0
24.06.2018 06:00:00 11,9 4,1 13 7 - - NNE 1025,3 27 0,0
24.06.2018 05:00:00 12,5 4,5 15 8 - - NNE 1025,2 27 0,0
24.06.2018 04:00:00 12,4 7,1 21 11 - - NNE 1025,4 25 0,0
24.06.2018 03:00:00 12,3 8,3 16 9 - - NE 1025,9 21 0,0
24.06.2018 02:00:00 12,4 9,1 16 9 - - NE 1026,3 20 0,0
24.06.2018 01:00:00 12,7 6,8 15 8 - - NE 1026,7 20 0,0
24.06.2018 00:00:00 12,6 6,5 13 7 - - NNE 1026,9 20 0,0
23.06.2018 23:00:00 13,3 7,2 13 7 - - NNE 1027,3 10 0,0
23.06.2018 22:00:00 14,5 8,0 11 6 - - NNE 1027,4 10 0,0
23.06.2018 21:00:00 16,7 8,7 13 7 - - N 1027,0 10 0,0
23.06.2018 20:00:00 18,3 9,5 4 2 - - WSW 1027,1 21 0,0
23.06.2018 19:00:00 18,9 7,2 11 6 - - SW 1027,1 10 0,0
23.06.2018 18:00:00 19,8 6,8 8 4 - - WSW 1027,6 10 0,0
23.06.2018 17:00:00 18,3 8,2 13 7 - - SW 1028,1 10 0,0
23.06.2018 16:00:00 19,0 7,3 13 7 - - SW 1028,5 10 0,0
23.06.2018 15:00:00 21,0 4,2 11 6 - - SE 1028,7 10 0,0
23.06.2018 14:00:00 20,5 3,2 13 7 - - E 1029,1 10 0,0
23.06.2018 13:00:00 20,3 3,0 15 8 - - ESE 1029,5 10 0,0
23.06.2018 12:00:00 19,8 4,1 11 6 - - ESE 1029,7 10 0,0
23.06.2018 11:00:00 19,0 6,4 13 7 - - ESE 1029,8 10 0,0
23.06.2018 10:00:00 17,7 8,0 18 10 - - ESE 1030,0 10 0,0
23.06.2018 09:00:00 16,6 9,2 16 9 - - ESE 1030,0 10 0,0
23.06.2018 08:00:00 15,2 9,2 16 9 - - ENE 1030,0 10 0,0
23.06.2018 07:00:00 12,2 9,0 18 10 - - ENE 1029,6 10 0,0
23.06.2018 06:00:00 9,9 8,1 16 9 - - NE 1030,1 10 0,0
23.06.2018 05:00:00 9,2 7,1 13 7 - - NNE 1030,3 23 0,0
23.06.2018 04:00:00 9,6 6,9 13 7 - - N 1030,1 10 0,0
23.06.2018 03:00:00 9,4 6,9 16 9 - - NE 1030,1 10 0,0
23.06.2018 02:00:00 10,0 8,1 16 9 - - NE 1030,4 10 0,0
23.06.2018 01:00:00 10,5 8,5 15 8 - - NNE 1030,8 10 0,0
23.06.2018 00:00:00 10,3 8,3 15 8 - - NNE 1031,0 10 0,0
22.06.2018 23:00:00 11,7 8,0 22 12 - - NNE 1031,1 10 0,0
22.06.2018 22:00:00 11,7 8,7 15 8 - - NNE 1031,0 10 0,0
22.06.2018 21:00:00 13,5 9,2 24 13 - - N 1030,6 10 0,0
22.06.2018 20:00:00 14,5 9,3 29 16 - - N 1030,6 22 0,0
22.06.2018 19:00:00 15,2 8,7 31 17 - - N 1030,8 24 0,0
22.06.2018 18:00:00 15,8 8,0 34 18 - - N 1031,0 28 0,0
22.06.2018 17:00:00 17,4 6,9 31 17 - - N 1030,9 30 0,0
22.06.2018 16:00:00 17,5 5,7 29 16 - - N 1031,4 30 0,0
22.06.2018 15:00:00 17,5 6,9 22 12 - - N 1031,7 10 0,0
22.06.2018 14:00:00 17,3 7,6 28 15 - - N 1031,9 30 0,0
22.06.2018 13:00:00 17,8 7,9 18 10 - - N 1032,1 10 0,0
22.06.2018 12:00:00 17,3 4,8 18 10 - - NNE 1032,2 30 0,0
22.06.2018 11:00:00 16,5 6,8 16 9 - - N 1032,5 10 0,0
22.06.2018 10:00:00 15,4 5,8 15 8 - - NNE 1032,7 10 0,0
22.06.2018 09:00:00 14,5 7,6 18 10 - - NE 1032,5 10 0,0
22.06.2018 08:00:00 13,0 7,8 18 10 - - NE 1032,6 10 0,0
22.06.2018 07:00:00 11,4 8,3 16 9 - - NNE 1032,5 10 0,0
22.06.2018 06:00:00 9,8 7,1 13 7 - - NE 1032,4 25 0,0
22.06.2018 05:00:00 9,5 6,9 16 9 - - NE 1032,1 25 0,0
22.06.2018 04:00:00 9,8 6,7 15 8 - - NE 1032,0 10 0,0
22.06.2018 03:00:00 10,7 6,6 22 12 - - NNE 1031,6 10 0,0
22.06.2018 02:00:00 10,6 6,1 22 12 - - NNE 1031,5 10 0,0
22.06.2018 01:00:00 10,8 5,5 22 12 - - NNE 1031,7 10 0,0
22.06.2018 00:00:00 10,9 5,0 22 12 - - NNE 1031,7 10 0,0
21.06.2018 23:00:00 10,8 5,0 16 9 - - NNE 1031,8 25 0,0
21.06.2018 22:00:00 11,6 4,5 29 16 46 25 N 1031,0 10 0,0
21.06.2018 21:00:00 13,0 3,8 29 16 46 25 NNE 1030,6 10 0,0
21.06.2018 20:00:00 14,1 4,2 29 16 50 27 NNE 1030,4 10 0,0
21.06.2018 19:00:00 14,4 6,7 37 20 52 28 N 1030,2 20 0,0
21.06.2018 18:00:00 14,9 7,0 26 14 50 27 NNE 1030,2 20 0,0
21.06.2018 17:00:00 15,2 7,1 26 14 46 25 NNE 1030,1 10 0,0
21.06.2018 16:00:00 15,5 6,3 28 15 46 25 N 1030,0 10 0,0
21.06.2018 15:00:00 14,8 6,8 24 13 48 26 N 1030,1 10 0,0
21.06.2018 14:00:00 15,2 5,2 35 19 48 26 N 1029,8 10 0,0
21.06.2018 13:00:00 15,2 5,0 26 14 50 27 N 1029,4 10 0,0
21.06.2018 12:00:00 14,9 3,7 29 16 46 25 N 1029,1 10 0,0
21.06.2018 11:00:00 15,1 5,4 29 16 46 25 N 1028,9 25 0,0
21.06.2018 10:00:00 14,0 5,8 26 14 - - NNE 1028,7 10 0,0
21.06.2018 09:00:00 13,5 6,9 24 13 - - NNE 1028,3 10 0,0
21.06.2018 08:00:00 12,6 8,5 26 14 - - NNE 1027,8 10 0,0
21.06.2018 07:00:00 11,7 8,3 21 11 - - NNE 1027,4 10 0,0
21.06.2018 06:00:00 10,6 8,0 21 11 - - N 1027,0 25 0,0
21.06.2018 05:00:00 11,0 8,8 22 12 - - NNE 1026,2 10 0,0
21.06.2018 04:00:00 11,0 10,0 13 7 - - N 1025,9 10 0,0
21.06.2018 03:00:00 10,9 9,4 11 6 - - NNW 1025,7 10 0,0
21.06.2018 02:00:00 11,0 9,3 15 8 - - NNW 1025,4 26 0,0
21.06.2018 01:00:00 11,3 9,0 15 8 - - NNW 1025,3 10 0,0
21.06.2018 00:00:00 12,1 9,2 13 7 - - NNW 1025,1 27 0,0
20.06.2018 23:00:00 12,1 10,0 13 7 - - N 1024,7 10 0,0
20.06.2018 22:00:00 12,5 10,1 15 8 - - N 1024,1 25 0,0
20.06.2018 21:00:00 13,6 11,1 22 12 - - N 1023,3 10 0,0
20.06.2018 20:00:00 14,7 12,8 18 10 - - NNW 1022,8 10 0,0
20.06.2018 19:00:00 15,4 13,2 18 10 - - NW 1022,4 25 0,0
20.06.2018 18:00:00 16,5 13,2 15 8 - - NW 1022,0 10 0,0
20.06.2018 17:00:00 17,1 13,9 16 9 - - W 1021,8 10 0,0
20.06.2018 16:00:00 16,1 15,3 13 7 - - NW 1022,1 5 0,0
20.06.2018 15:00:00 15,7 15,6 16 9 - - WSW 1022,3 0,7 0,0
20.06.2018 14:00:00 15,8 15,3 22 12 - - SW 1022,2 0,9 0,0
20.06.2018 13:00:00 15,9 15,5 16 9 - - SW 1022,4 2,5 0,0
20.06.2018 12:00:00 15,6 15,1 22 12 - - SW 1022,3 29 0,0
20.06.2018 11:00:00 14,9 14,8 22 12 - - SW 1022,1 3,2 0,0
20.06.2018 10:00:00 14,8 14,7 16 9 - - SW 1022,2 0,2 0,0
20.06.2018 09:00:00 14,6 14,5 18 10 - - SW 1022,2 0,1 0,0
20.06.2018 08:00:00 14,3 14,1 18 10 - - SSW 1022,0 0,1 0,0
20.06.2018 07:00:00 14,0 13,9 18 10 - - SSW 1022,0 0,1 0,0
20.06.2018 06:00:00 13,8 13,6 18 10 - - SW 1022,0 0,1 0,0
20.06.2018 05:00:00 13,7 13,6 18 10 - - SW 1022,1 0,2 0,0
20.06.2018 04:00:00 13,8 13,6 18 10 - - SSW 1022,2 0,2 0,2
20.06.2018 03:00:00 14,0 13,9 18 10 - - SW 1022,5 0,2 0,0
20.06.2018 02:00:00 14,1 14,0 22 12 - - SSW 1022,8 0,2 0,0
20.06.2018 01:00:00 14,3 14,0 16 9 - - SW 1023,1 0,4 0,0
20.06.2018 00:00:00 14,5 13,9 15 8 - - SW 1023,4 6 0,0
19.06.2018 23:00:00 14,6 14,1 15 8 - - SW 1023,7 3,0 0,0
19.06.2018 22:00:00 14,9 14,6 11 6 - - SW 1023,7 2,0 0,0
19.06.2018 21:00:00 15,0 14,7 15 8 - - SW 1023,6 0,8 0,0
19.06.2018 20:00:00 15,2 14,9 13 7 - - SW 1024,0 1,8 0,0
19.06.2018 19:00:00 15,4 15,0 11 6 - - SW 1024,1 0,5 0,0
19.06.2018 18:00:00 15,5 15,0 9 5 - - SW 1024,5 1,5 0,0
19.06.2018 17:00:00 15,9 15,1 11 6 - - SW 1024,7 3,0 0,0
19.06.2018 16:00:00 16,3 15,2 15 8 - - SW 1024,8 4,0 0,0
19.06.2018 15:00:00 16,9 15,3 16 9 - - SW 1024,8 5 0,0
19.06.2018 14:00:00 17,1 15,4 18 10 - - SW 1024,9 6 0,0
19.06.2018 13:00:00 17,0 16,3 16 9 - - SW 1025,0 6 0,0
19.06.2018 12:00:00 16,0 15,9 13 7 - - WSW 1025,3 2,5 0,0
19.06.2018 11:00:00 15,9 15,7 13 7 - - SW 1025,2 0,6 0,0
19.06.2018 10:00:00 15,2 15,1 15 8 - - WSW 1025,2 0,2 0,0
19.06.2018 09:00:00 14,8 14,7 11 6 - - WSW 1025,1 0,1 0,2
19.06.2018 08:00:00 14,8 14,6 13 7 - - SW 1024,9 0,1 0,2
19.06.2018 07:00:00 14,5 14,3 11 6 - - SW 1024,5 0,1 0,0
19.06.2018 06:00:00 14,3 14,2 13 7 - - SW 1024,2 0,1 0,0
19.06.2018 05:00:00 14,3 14,2 11 6 - - WSW 1024,1 0,1 0,0
19.06.2018 04:00:00 14,3 14,2 11 6 - - WSW 1024,2 0,1 0,0
19.06.2018 03:00:00 14,4 14,2 11 6 - - WSW 1024,2 0,1 0,2
19.06.2018 02:00:00 14,4 14,2 9 5 - - WSW 1024,3 1,5 0,0
19.06.2018 01:00:00 14,5 14,3 11 6 - - WSW 1024,3 0,3 0,0
19.06.2018 00:00:00 14,6 14,4 13 7 - - WSW 1024,3 1,5 0,0
18.06.2018 23:00:00 14,8 14,6 15 8 - - WSW 1024,4 0,4 0,0
18.06.2018 22:00:00 14,7 14,5 13 7 - - W 1024,2 0,1 0,0
18.06.2018 21:00:00 14,7 14,5 16 9 - - WSW 1023,8 - 0,0
18.06.2018 20:00:00 14,9 14,6 16 9 - - WSW 1023,5 0,1 0,0
18.06.2018 19:00:00 15,1 14,7 18 10 - - WSW 1023,4 0,3 0,0
18.06.2018 18:00:00 15,1 14,4 16 9 - - WSW 1023,2 3,0 0,0
18.06.2018 17:00:00 15,5 14,8 11 6 - - WSW 1023,1 1,4 0,0
18.06.2018 16:00:00 15,5 15,0 16 9 - - WSW 1023,0 0,8 0,0
18.06.2018 15:00:00 15,6 15,3 15 8 - - WSW 1023,0 0,9 0,0

tt = temperature
td = dewpoint
ff = wind speed
fx = gusts
dd = wind direction
ppp = reduced air pressure
vv = visibility
rr = precipitation

Next stations